Location: Boiro
(42.6475°N, 8.8834°W)
Time: 17:50:08
(UTC+01:00)

Transit 2A - Pass Details

Date: 07 December 2021
Orbit: 591 x 967 km, 66.7° (Epoch: 20 January)

Event Time Altitude Azimuth Distance (km) Brightness Sun altitude
Rises 23:02:00 0° 157° (SSE) 3,267 - -53.9°
Reaches altitude 10° 23:05:23 10° 134° (SE) 2,424 - -54.5°
Maximum altitude 23:08:26 15° 101° (E) 2,158 - -55.0°
Drops below altitude 10° 23:11:38 10° 68° (ENE) 2,564 - -55.6°
Sets 23:15:21 0° 47° (NE) 3,573 - -56.2°
